Theta_e
348 347 345 344 346 343 345 351 352 352 353 354 352 349 344 336 333 329 324 320 320 317
347 345 346 347 347 347 346 352 354 353 353 352 351 348 343 337 333 327 324 321 319 318
346 345 345 344 344 344 345 346 348 353 353 351 349 346 343 335 329 325 323 322 319 317
346 345 345 344 344 345 348 347 349 352 351 349 347 345 339 337 328 323 321 320 319 316
346 347 346 345 346 347 350 350 350 351 350 347 346 344 340 334 329 325 322 321 317 315
343 344 346 347 346 344 348 351 351 350 349 346 345 343 341 339 330 325 323 320 317 315
346 346 346 348 348 347 348 348 350 351 350 348 345 343 341 336 325 322 321 319 317 316
348 350 350 349 349 349 350 351 349 351 351 348 345 344 338 329 323 322 319 318 316 314
349 350 350 349 349 348 350 351 349 351 351 346 347 335 332 330 324 322 319 317 315 313
350 349 349 350 349 348 350 350 350 352 350 347 345 330 328 329 325 323 319 318 315 313
349 349 349 349 349 349 350 350 351 352 349 346 343 328 325 327 325 323 322 320 317 314
349 349 349 348 348 349 350 350 351 352 347 344 338 323 322 325 324 321 321 321 318 312
350 349 349 350 350 350 351 350 351 350 347 339 336 317 317 322 324 320 319 316 315 319
350 350 350 350 351 350 350 349 349 347 343 341 336 321 313 314 322 321 319 317 311 313
Wind_Speed
7 4 5 6 4 4 3 3 5 6 5 6 6 5 5 4 4 4 4 6 4 3
7 7 6 7 5 4 4 2 5 5 6 6 6 6 6 4 4 4 4 4 4 3
11 8 7 5 7 6 5 4 4 6 7 6 6 6 6 5 5 6 3 3 5 3
10 9 7 7 7 7 6 5 6 6 7 7 7 6 6 6 6 6 5 4 5 4
11 10 9 10 10 6 7 5 6 7 7 6 7 7 7 7 6 7 6 6 6 5
13 12 12 13 12 7 8 7 6 6 7 8 7 7 7 7 6 6 6 7 7 6
15 15 14 14 13 10 9 10 7 7 7 8 8 7 7 7 6 6 6 7 7 7
15 13 12 14 14 11 10 10 8 8 7 7 8 7 8 8 7 7 6 6 6 7
14 13 14 14 13 10 11 10 7 10 9 9 7 12 14 12 8 7 8 7 6 7
14 15 15 15 13 12 13 9 10 11 10 11 10 17 16 15 8 8 7 7 6 5
14 15 14 14 15 12 11 11 12 11 11 10 10 17 16 15 8 7 7 7 7 7
16 15 15 16 16 13 11 11 11 9 11 12 9 15 16 15 8 7 8 7 8 9
16 17 17 17 15 12 11 11 7 9 11 13 12 16 17 15 8 8 6 5 6 12
16 17 17 14 12 11 11 7 9 10 10 12 13 12 17 15 9 9 7 6 3 3
Wind_Direction
193 202 201 202 201 222 207 252 178 182 158 153 145 138 131 127 125 125 110 99 93 88
195 197 211 209 208 221 208 231 190 170 154 158 156 146 141 139 139 126 123 112 105 99
204 199 209 215 228 233 247 217 227 195 166 167 159 145 142 141 145 124 143 130 119 108
199 206 207 218 229 225 239 243 206 185 171 171 160 157 147 156 153 152 155 144 137 124
195 201 204 222 231 218 225 225 209 178 180 171 175 169 158 167 169 170 173 159 140 146
201 204 210 222 228 221 221 220 213 200 178 185 181 179 175 169 180 186 181 165 159 164
201 206 208 219 225 222 220 222 208 205 196 189 181 183 172 163 175 168 166 161 162 161
203 203 204 217 223 222 217 220 201 204 201 191 181 187 173 162 168 164 165 164 161 169
198 197 202 215 222 218 223 215 182 208 197 192 194 182 178 163 165 171 169 179 182 183
196 201 204 211 215 218 221 211 194 209 196 197 192 179 179 168 170 171 174 183 177 188
195 202 206 211 217 218 220 213 201 204 198 195 196 181 176 173 168 170 181 181 187 179
197 200 204 213 217 216 220 219 206 199 191 195 194 179 175 175 165 174 186 183 182 164
198 203 207 212 215 217 220 223 197 199 197 194 186 185 178 170 163 176 182 185 173 174
201 206 212 212 208 210 216 207 199 197 194 194 190 179 184 163 171 183 184 167 173 210